Temperature
6 6 6 6 6 6 5 5 4 4 4 5 5 5 5 5 5 5 5 5 5 5 5 5 5 5 5 5 5 5 5 5 5 5 5 5 5 5
6 6 6 6 6 5 5 5 4 4 4 4 4 5 5 5 5 5 5 5 5 5 5 5 5 5 5 5 5 5 4 4 4 4 5 5 5 5
5 5 6 5 5 5 5 5 4 4 4 4 4 4 4 4 4 4 4 4 4 4 4 4 4 4 4 4 4 4 4 4 4 4 4 4 4 4
5 5 5 5 5 5 4 4 4 4 4 4 4 4 4 4 4 4 4 4 4 4 4 4 4 4 4 4 4 4 4 4 4 4 4 4 4 4
5 5 5 5 5 4 4 4 4 4 4 3 4 3 3 3 3 3 3 3 4 4 4 4 4 4 4 4 4 4 4 4 4 4 4 4 4 4
4 4 4 4 4 4 4 4 4 4 3 3 3 3 3 3 3 3 3 3 3 3 3 3 3 3 3 3 3 3 3 3 3 3 3 3 3 3
4 4 4 4 4 4 4 3 3 3 3 3 3 2 3 3 3 2 2 3 3 3 3 3 3 3 3 3 3 3 3 3 3 3 3 3 3 3
3 3 3 3 3 3 3 3 3 3 3 2 2 2 2 2 2 2 2 2 2 2 2 3 3 3 2 3 3 3 3 3 3 3 3 3 3 3
3 3 3 3 3 3 3 3 3 2 2 2 2 2 2 2 2 2 2 2 2 2 2 2 2 2 2 2 2 2 2 2 2 3 3 3 3 3
2 2 2 2 3 2 2 2 2 2 2 2 2 2 2 2 2 2 2 2 2 2 2 2 2 2 2 2 2 2 2 2 2 2 2 2 3 3
2 2 2 2 2 2 2 2 2 2 2 2 2 2 2 2 2 2 2 1 1 2 1 1 1 2 2 2 2 2 2 2 2 2 2 2 2 2
1 1 1 1 1 1 1 1 2 2 2 2 2 2 2 2 2 2 2 1 1 1 1 1 1 1 1 2 2 2 2 2 2 2 2 2 2 2
0 1 1 1 1 1 1 1 1 1 1 2 2 2 2 2 2 2 2 1 1 1 1 1 1 1 1 1 2 2 2 2 2 2 2 2 2 2
-0 0 0 0 0 1 1 1 1 1 1 1 1 2 2 2 2 2 2 1 1 1 1 1 1 1 1 1 1 1 1 1 1 2 2 2 2 2
-1 -0 -0 -0 0 0 0 1 1 1 1 1 1 1 1 1 1 1 1 1 1 1 1 1 1 0 0 0 1 1 1 1 1 1 1 1 1 1
-1 -1 -1 -0 -0 -0 0 0 0 0 0 0 1 1 1 1 1 1 1 1 1 1 1 1 1 0 0 0 0 0 0 1 1 1 1 1 1 1
-2 -1 -1 -1 -1 -1 -1 -0 -0 0 0 0 0 1 1 1 1 1 1 1 1 1 1 1 1 0 0 0 0 0 0 0 1 1 1 1 1 1
-2 -2 -2 -2 -2 -1 -1 -1 -1 -0 -0 -0 -0 0 0 0 0 0 1 0 0 0 0 0 1 1 0 0 0 0 0 0 0 0 1 1 1 1
-2 -2 -2 -2 -2 -2 -2 -1 -1 -1 -1 -1 -0 -0 -0 -0 -0 -0 0 0 0 0 0 0 0 -0 -0 -0 0 0 -0 0 0 0 0 0 0 1
-3 -2 -2 -2 -2 -2 -2 -2 -2 -1 -1 -1 -1 -1 -1 -1 -0 -0 -0 -0 -0 -0 -0 -0 -0 -0 -0 -0 -0 0 -0 -0 -0 -0 0 0 0 1
-3 -3 -3 -3 -3 -3 -2 -2 -2 -2 -2 -1 -1 -1 -1 -1 -1 -1 -1 -0 -0 -1 -1 -0 -0 -0 -0 -0 -0 -0 -0 -0 -0 -0 -0 -0 -0 0
-3 -3 -3 -3 -3 -3 -3 -3 -2 -2 -2 -2 -2 -2 -1 -1 -1 -1 -1 -1 -1 -1 -1 -1 -1 -1 -1 -1 -0 -0 -0 -0 -1 -1 -1 -1 -1 -1
-4 -4 -4 -3 -3 -3 -3 -3 -3 -3 -2 -2 -2 -2 -2 -2 -1 -1 -1 -1 -1 -1 -1 -1 -1 -1 -1 -1 -1 -1 -1 -1 -1 -1 -1 -1 -1 -1
Wind_Speed
3 4 3 2 2 3 3 3 3 4 5 4 3 4 6 7 8 8 8 9 11 11 11 11 11 11 10 11 11 10 10 10 10 9 9 10 10 9
3 4 3 3 3 2 3 4 4 5 5 4 5 6 6 6 8 8 8 9 9 9 10 10 10 10 10 10 10 10 10 10 9 9 10 10 9 9
2 3 3 3 3 3 3 4 4 4 6 6 5 6 7 6 6 7 8 7 7 8 10 10 9 10 10 10 9 10 10 10 10 10 10 10 10 10
3 3 3 3 4 3 3 4 4 4 5 7 6 5 6 6 6 6 6 6 7 8 9 9 9 9 9 9 9 9 10 10 9 9 10 10 10 11
3 4 3 3 3 3 4 4 4 4 4 4 5 5 5 5 6 6 6 6 6 7 8 8 7 8 9 8 8 9 9 10 9 9 10 9 10 11
3 4 4 3 4 4 4 4 4 4 4 4 4 4 4 5 5 5 5 5 5 6 6 7 7 8 8 7 8 8 9 9 9 9 9 9 10 10
3 3 3 4 4 4 4 4 4 4 3 3 4 4 4 4 5 5 5 6 5 4 5 5 6 5 5 6 6 7 8 9 9 9 9 10 10 10
4 4 3 3 4 4 5 5 5 4 4 4 4 5 5 5 5 4 5 5 4 4 5 6 5 5 5 4 6 8 9 9 9 10 10 10 11 10
4 4 3 3 4 4 4 4 4 5 5 5 6 6 6 5 5 5 5 5 5 5 5 5 4 5 4 5 7 8 9 9 10 10 10 11 11 10
3 4 4 4 3 4 4 4 4 5 5 5 6 6 6 5 5 5 5 5 5 4 3 4 4 5 5 5 6 7 8 9 10 10 10 11 11 11
3 4 4 4 4 4 4 5 5 5 5 6 7 7 6 5 4 3 3 3 4 3 2 2 3 5 5 4 4 7 8 9 10 10 10 10 10 10
3 3 4 5 4 4 4 5 5 6 6 6 6 5 4 3 3 3 3 3 3 2 1 2 2 3 3 3 4 5 6 8 9 9 9 10 10 7
3 3 3 5 5 5 5 4 6 6 5 5 4 4 3 2 2 3 3 3 3 3 2 2 2 3 3 3 4 4 5 5 6 7 8 10 10 8
4 4 4 5 5 6 5 5 6 5 3 4 3 3 3 3 3 4 4 4 4 4 3 3 2 3 3 3 4 4 5 5 5 5 6 8 9 9
4 5 5 5 6 4 4 5 4 3 3 3 4 3 3 3 3 3 3 3 4 3 2 3 3 3 3 3 3 4 4 5 5 5 6 6 5 5
4 4 5 5 4 4 4 3 3 3 3 3 4 3 3 2 2 2 3 3 3 3 3 3 3 3 3 4 3 4 4 4 5 6 6 5 5 4
3 3 3 3 3 3 3 3 2 2 3 3 3 3 3 3 3 2 2 2 2 3 4 4 3 3 3 3 3 4 4 4 5 5 5 5 5 4
3 3 3 3 3 3 3 3 3 3 3 3 3 3 3 3 3 2 2 2 2 3 3 3 3 3 2 2 2 3 4 4 5 5 4 4 4 4
3 3 3 3 3 3 3 3 3 3 3 3 3 3 3 3 2 2 2 2 2 2 2 2 3 2 2 3 2 2 3 4 4 4 4 3 4 5
3 3 4 3 3 3 4 4 3 3 3 3 3 3 2 2 2 2 2 2 2 2 2 2 2 3 3 3 3 3 4 3 3 4 4 4 4 5
3 4 4 4 3 4 4 4 4 4 3 3 3 3 3 3 3 3 2 3 2 2 2 3 3 4 3 2 2 3 3 4 4 3 3 3 3 3
4 4 4 4 4 4 4 3 3 4 4 3 3 3 3 3 3 3 2 2 2 2 2 2 2 2 2 2 3 3 4 4 5 5 3 2 2 2
4 4 4 4 4 4 3 4 4 4 4 4 3 3 3 3 3 2 2 2 2 2 2 2 2 2 2 3 2 3 3 4 4 4 4 5 4 6
Wind_Direction
244 246 250 254 257 258 253 251 262 282 286 283 299 298 308 310 313 314 316 324 324 325 329 333 334 332 334 336 334 334 335 334 331 328 325 324 322 322
253 244 247 254 255 260 255 254 257 263 274 286 297 307 306 305 310 311 311 317 319 324 327 329 330 331 333 334 339 343 342 339 333 327 324 324 324 323
266 254 251 257 262 261 261 254 255 260 273 291 298 308 307 306 311 312 313 314 317 321 325 327 328 329 332 336 343 344 341 338 332 327 327 326 325 324
264 265 266 269 266 267 266 266 261 264 272 285 301 307 307 305 308 311 314 312 316 319 322 325 326 328 331 333 338 341 341 337 330 327 325 325 325 325
265 265 269 271 277 274 273 272 273 278 277 280 293 307 308 307 313 314 313 314 319 323 323 326 325 323 325 328 335 340 340 339 332 330 329 328 327 326
267 269 270 269 274 282 277 274 277 282 282 278 290 301 308 313 314 318 317 321 321 321 325 321 320 321 322 325 331 337 339 337 336 334 332 331 331 328
268 268 271 278 286 287 285 285 282 278 279 284 289 298 306 316 308 308 305 315 315 319 323 320 321 321 321 325 332 338 338 337 335 334 334 335 335 332
273 274 278 271 282 290 291 295 290 273 273 277 282 286 290 297 301 299 303 311 309 315 313 311 316 314 317 322 328 332 334 335 334 331 330 330 330 328
272 277 280 281 287 282 287 289 289 287 277 271 271 279 284 283 282 283 287 298 294 302 304 294 304 303 305 314 319 325 329 331 331 330 329 329 329 327
272 274 271 275 280 293 289 283 285 287 283 279 278 282 283 279 268 271 278 292 303 299 298 281 299 303 306 301 308 315 320 324 327 327 327 329 329 325
274 273 275 274 285 297 290 287 291 296 299 292 293 289 289 287 282 279 277 287 301 302 295 281 297 309 299 292 307 316 319 322 326 326 327 330 330 324
277 273 272 280 289 292 285 285 289 299 307 304 297 295 293 278 262 256 256 269 296 282 269 290 296 317 301 296 315 317 315 318 325 328 331 334 336 329
279 276 272 277 283 285 288 284 290 301 295 294 295 299 304 297 291 299 287 272 272 275 274 282 288 293 285 297 304 310 315 321 326 329 332 335 336 333
276 279 283 286 286 285 284 296 301 302 292 293 293 297 306 312 314 316 317 321 306 283 262 267 272 276 292 302 302 310 312 316 322 324 326 329 329 327
280 287 293 295 294 280 279 290 287 286 291 290 290 294 301 304 311 322 337 350 345 328 266 276 286 279 279 288 302 308 309 312 320 324 326 326 323 322
282 285 285 284 284 285 283 277 276 277 281 282 291 300 311 315 310 318 322 331 333 335 334 324 312 293 289 292 292 299 305 302 311 321 325 322 318 317
292 284 281 281 283 286 291 293 290 285 286 295 293 301 307 309 314 319 320 321 319 323 334 341 339 318 292 287 294 299 305 311 312 320 326 326 327 324
272 270 272 274 278 284 290 297 297 291 290 291 286 286 291 292 300 310 314 311 314 318 327 334 339 337 323 296 268 298 311 315 321 323 324 323 326 335
260 267 270 273 277 280 281 283 288 293 290 283 281 281 288 290 288 290 292 300 313 317 322 330 334 339 332 327 315 289 313 320 325 328 326 321 315 321
263 268 272 275 276 277 277 281 286 290 292 289 285 283 282 279 278 277 276 289 300 310 314 317 319 314 299 295 301 307 310 310 318 324 328 329 325 316
268 268 269 268 271 276 277 279 280 279 282 285 279 274 273 272 272 271 273 285 295 300 296 298 309 319 315 305 308 322 329 324 317 314 323 329 337 348
277 275 274 271 270 271 276 276 279 278 278 277 278 276 273 267 267 265 264 267 275 290 297 312 328 329 331 324 324 327 336 342 342 334 319 308 330 337
285 283 279 276 272 272 273 273 271 274 275 274 275 275 272 271 269 261 259 263 277 294 314 326 337 343 340 333 332 335 337 344 350 1 3 352 325 305
Height
1510 1510 1510 1510 1509 1509 1508 1508 1507 1504 1501 1499 1498 1495 1493 1491 1488 1486 1483 1481 1478 1476 1473 1470 1467 1465 1462 1460 1458 1456 1453 1451 1449 1448 1447 1446 1444 1443
1507 1507 1507 1507 1506 1506 1505 1505 1504 1503 1499 1496 1495 1493 1490 1488 1486 1483 1481 1478 1476 1473 1470 1468 1465 1463 1460 1458 1456 1453 1451 1449 1447 1445 1444 1443 1441 1440
1504 1504 1504 1504 1503 1503 1502 1501 1500 1499 1496 1493 1492 1490 1488 1485 1483 1481 1478 1475 1473 1470 1468 1465 1463 1460 1458 1456 1454 1451 1449 1446 1444 1442 1441 1439 1438 1436
1501 1501 1500 1500 1500 1499 1499 1498 1497 1495 1494 1491 1488 1487 1484 1482 1480 1478 1475 1473 1470 1468 1465 1463 1460 1458 1456 1454 1451 1449 1446 1444 1441 1439 1438 1436 1435 1433
1498 1498 1497 1497 1496 1496 1495 1494 1493 1492 1490 1488 1485 1484 1482 1480 1477 1475 1473 1470 1468 1465 1463 1461 1458 1456 1454 1451 1449 1446 1444 1441 1439 1437 1435 1433 1432 1430
1495 1494 1494 1494 1493 1492 1491 1491 1490 1488 1487 1485 1482 1480 1479 1477 1475 1472 1469 1467 1465 1463 1460 1458 1456 1453 1451 1449 1446 1444 1441 1439 1436 1434 1432 1431 1429 1427
1492 1491 1491 1490 1490 1489 1488 1487 1486 1484 1483 1481 1479 1477 1475 1473 1472 1470 1467 1465 1462 1460 1458 1456 1453 1451 1448 1446 1444 1441 1439 1437 1434 1432 1430 1428 1426 1423
1488 1487 1487 1486 1486 1485 1485 1484 1483 1481 1479 1478 1476 1474 1472 1471 1469 1467 1465 1463 1460 1459 1456 1453 1451 1449 1447 1444 1442 1439 1437 1434 1432 1430 1428 1425 1423 1421
1485 1484 1483 1483 1482 1481 1481 1480 1479 1478 1477 1475 1473 1471 1469 1468 1466 1464 1463 1461 1459 1456 1454 1450 1449 1447 1445 1442 1440 1437 1435 1432 1430 1428 1425 1423 1420 1418
1481 1480 1480 1479 1479 1478 1477 1476 1475 1474 1473 1471 1469 1468 1466 1465 1463 1462 1460 1458 1456 1455 1452 1449 1446 1444 1442 1440 1438 1435 1433 1430 1428 1425 1422 1420 1417 1415
1477 1477 1476 1476 1475 1474 1473 1472 1470 1470 1469 1467 1466 1464 1463 1461 1460 1459 1457 1455 1453 1451 1450 1447 1444 1442 1439 1438 1435 1433 1430 1428 1425 1423 1420 1417 1415 1412
1474 1473 1473 1472 1472 1470 1469 1468 1466 1466 1465 1463 1462 1461 1459 1458 1457 1456 1454 1452 1450 1448 1447 1445 1443 1440 1437 1435 1433 1430 1428 1425 1423 1420 1418 1415 1413 1410
1470 1469 1469 1469 1468 1467 1466 1464 1463 1462 1461 1460 1458 1457 1456 1455 1454 1453 1452 1450 1448 1446 1445 1443 1441 1439 1437 1433 1430 1428 1426 1423 1421 1418 1416 1414 1411 1409
1466 1466 1465 1465 1464 1463 1462 1461 1460 1459 1458 1457 1455 1454 1452 1451 1451 1450 1449 1447 1446 1445 1443 1442 1439 1437 1435 1432 1429 1426 1424 1422 1419 1417 1414 1412 1409 1407
1463 1463 1462 1461 1461 1460 1459 1458 1457 1456 1455 1454 1452 1451 1450 1449 1448 1447 1446 1445 1444 1442 1441 1439 1437 1436 1434 1431 1428 1425 1422 1420 1418 1415 1413 1410 1408 1405
1460 1459 1459 1458 1457 1456 1456 1455 1454 1453 1452 1451 1450 1449 1448 1447 1446 1445 1444 1442 1441 1440 1439 1437 1435 1434 1431 1429 1427 1424 1422 1420 1417 1414 1412 1409 1407 1404
1456 1456 1455 1454 1454 1453 1452 1452 1451 1450 1449 1448 1447 1446 1445 1444 1443 1443 1442 1440 1439 1437 1436 1435 1433 1431 1430 1428 1425 1423 1421 1419 1416 1413 1411 1408 1406 1403
1453 1452 1452 1451 1450 1450 1449 1448 1447 1447 1446 1445 1444 1443 1442 1441 1441 1440 1439 1438 1437 1436 1434 1432 1431 1429 1428 1426 1425 1422 1420 1418 1415 1413 1410 1407 1405 1403
1450 1449 1449 1448 1447 1447 1446 1445 1444 1444 1443 1442 1441 1441 1440 1439 1439 1438 1437 1436 1435 1434 1433 1431 1429 1427 1426 1424 1423 1422 1419 1416 1414 1412 1410 1407 1405 1403
1446 1446 1445 1445 1444 1444 1443 1442 1441 1441 1440 1439 1439 1438 1438 1437 1436 1436 1435 1434 1433 1432 1431 1430 1428 1427 1426 1424 1422 1420 1418 1416 1413 1411 1409 1407 1405 1403
1443 1443 1442 1442 1441 1440 1440 1439 1438 1438 1437 1436 1436 1436 1435 1435 1434 1434 1433 1432 1431 1430 1429 1428 1427 1426 1425 1424 1422 1419 1418 1416 1414 1411 1409 1406 1404 1402
1440 1440 1439 1438 1438 1437 1437 1436 1435 1435 1434 1434 1433 1433 1433 1432 1432 1432 1431 1430 1429 1429 1428 1427 1426 1425 1424 1422 1420 1419 1417 1416 1414 1412 1410 1408 1405 1402
1437 1436 1435 1435 1434 1434 1433 1433 1432 1432 1432 1431 1431 1430 1430 1430 1430 1429 1429 1428 1427 1427 1426 1425 1424 1423 1422 1422 1420 1419 1417 1415 1414 1412 1411 1409 1407 1405